| time (UTC) | temp F | wind direction | speed knots | gust knots | rain 1hr in | rain 24hr in | rain mn in | humidity % | barometer mb |
| 20260506051037 | 46 | 304 | 0.9 | 1.7 | 0.00 | 0.29 | 0.00 | 94 | 1009.3 |
| 20260506050536 | 46 | 0 | 0.0 | 0.9 | 0.00 | 0.29 | 0.00 | 94 | 1009.0 |
| 20260506045037 | 46 | 2 | 0.0 | 1.7 | 0.00 | 0.29 | 0.00 | 94 | 1008.9 |
| 20260506044546 | 46 | 0 | 0.0 | 0.9 | 0.00 | 0.29 | 0.00 | 94 | 1009.1 |
| 20260506044041 | 46 | 337 | 0.0 | 0.9 | 0.00 | 0.29 | 0.00 | 94 | 1008.8 |
| 20260506043537 | 46 | 337 | 0.0 | 1.7 | 0.00 | 0.29 | 0.00 | 94 | 1009.0 |
| 20260506043045 | 46 | 337 | 0.0 | 1.7 | 0.00 | 0.29 | 0.00 | 94 | 1009.0 |
| 20260506042538 | 46 | 340 | 0.0 | 1.7 | 0.00 | 0.29 | 0.00 | 94 | 1009.1 |
| 20260506042037 | 46 | 0 | 0.0 | 0.9 | 0.00 | 0.29 | 0.00 | 94 | 1009.2 |
| 20260506041602 | 46 | 0 | 0.0 | 0.9 | 0.00 | 0.29 | 0.00 | 94 | 1009.1 |
| 20260506041037 | 46 | 330 | 0.0 | 0.9 | 0.01 | 0.29 | 0.00 | 94 | 1009.0 |
| 20260506040536 | 46 | 330 | 0.0 | 1.7 | 0.01 | 0.29 | 0.00 | 94 | 1008.9 |
| 20260506040051 | 46 | 0 | 0.0 | 2.6 | 0.01 | 0.29 | 0.00 | 94 | 1009.1 |
| 20260506035536 | 46 | 353 | 0.9 | 2.6 | 0.01 | 0.29 | 0.29 | 93 | 1009.1 |
| 20260506035037 | 46 | 323 | 0.9 | 2.6 | 0.01 | 0.29 | 0.29 | 93 | 1009.3 |
| 20260506034548 | 47 | 356 | 0.0 | 1.7 | 0.01 | 0.29 | 0.29 | 94 | 1009.3 |
| 20260506034041 | 46 | 0 | 0.0 | 1.7 | 0.01 | 0.29 | 0.29 | 94 | 1009.3 |
| 20260506033536 | 46 | 0 | 0.0 | 1.7 | 0.01 | 0.29 | 0.29 | 94 | 1009.3 |
| 20260506033048 | 46 | 0 | 0.0 | 0.9 | 0.01 | 0.29 | 0.29 | 94 | 1009.4 |
| 20260506032536 | 46 | 0 | 0.0 | 1.7 | 0.01 | 0.29 | 0.29 | 93 | 1009.6 |
| 20260506032038 | 46 | 0 | 0.0 | 1.7 | 0.01 | 0.29 | 0.29 | 93 | 1009.7 |
| 20260506031551 | 46 | 274 | 0.9 | 1.7 | 0.01 | 0.29 | 0.29 | 94 | 1009.7 |
| 20260506031037 | 46 | 53 | 0.0 | 1.7 | 0.00 | 0.28 | 0.28 | 94 | 1009.5 |
| 20260506030539 | 46 | 48 | 0.9 | 1.7 | 0.00 | 0.28 | 0.28 | 94 | 1009.4 |
| 20260506030049 | 46 | 0 | 0.0 | 2.6 | 0.00 | 0.28 | 0.28 | 94 | 1009.6 |
| 20260506025536 | 46 | 42 | 0.0 | 2.6 | 0.00 | 0.28 | 0.28 | 93 | 1009.6 |
| 20260506025036 | 46 | 23 | 0.0 | 2.6 | 0.00 | 0.28 | 0.28 | 93 | 1009.6 |
| 20260506024543 | 46 | 321 | 0.9 | 3.5 | 0.01 | 0.28 | 0.28 | 93 | 1009.5 |
| 20260506024036 | 46 | 319 | 0.9 | 4.3 | 0.02 | 0.28 | 0.28 | 93 | 1009.4 |
| 20260506023536 | 46 | 349 | 0.9 | 4.3 | 0.02 | 0.28 | 0.28 | 93 | 1009.5 |
| 20260506023102 | 46 | 1 | 1.7 | 4.3 | 0.03 | 0.28 | 0.28 | 93 | 1009.6 |
| 20260506022536 | 46 | 326 | 1.7 | 4.3 | 0.03 | 0.28 | 0.28 | 93 | 1009.7 |
| 20260506022036 | 46 | 347 | 0.9 | 1.7 | 0.04 | 0.28 | 0.28 | 93 | 1009.7 |
| 20260506021607 | 46 | 6 | 0.0 | 2.6 | 0.04 | 0.28 | 0.28 | 93 | 1009.7 |
| 20260506021039 | 46 | 10 | 0.9 | 3.5 | 0.04 | 0.28 | 0.28 | 93 | 1009.7 |
| 20260506020536 | 46 | 30 | 1.7 | 5.2 | 0.04 | 0.28 | 0.28 | 93 | 1009.8 |
| 20260506020044 | 46 | 356 | 0.9 | 5.2 | 0.04 | 0.28 | 0.28 | 93 | 1009.7 |
| 20260506015536 | 46 | 334 | 1.7 | 5.2 | 0.04 | 0.28 | 0.28 | 92 | 1009.7 |
| 20260506015038 | 46 | 330 | 1.7 | 4.3 | 0.04 | 0.28 | 0.28 | 92 | 1009.6 |
| 20260506014550 | 46 | 330 | 0.9 | 4.3 | 0.03 | 0.27 | 0.27 | 92 | 1009.7 |
| 20260506014037 | 46 | 26 | 0.9 | 6.1 | 0.02 | 0.26 | 0.26 | 92 | 1009.6 |
| 20260506013538 | 46 | 335 | 1.7 | 6.1 | 0.02 | 0.26 | 0.26 | 91 | 1009.9 |
| 20260506013044 | 46 | 18 | 3.5 | 7.8 | 0.01 | 0.25 | 0.25 | 91 | 1009.5 |
| 20260506012536 | 46 | 41 | 2.6 | 7.8 | 0.01 | 0.25 | 0.25 | 90 | 1009.6 |
| 20260506012036 | 47 | 303 | 1.7 | 7.8 | 0.00 | 0.24 | 0.24 | 90 | 1009.8 |
| 20260506011604 | 47 | 28 | 1.7 | 9.6 | 0.00 | 0.24 | 0.24 | 90 | 1009.3 |
| 20260506011036 | 47 | 9 | 4.3 | 11.3 | 0.00 | 0.24 | 0.24 | 89 | 1009.4 |
| 20260506010536 | 47 | 42 | 5.2 | 13.0 | 0.00 | 0.24 | 0.24 | 89 | 1009.2 |
| 20260506010048 | 47 | 347 | 6.1 | 13.0 | 0.00 | 0.24 | 0.24 | 87 | 1009.4 |
| 20260506005538 | 48 | 49 | 4.3 | 10.4 | 0.01 | 0.24 | 0.24 | 86 | 1009.4 |
| 20260506005035 | 49 | 340 | 3.5 | 10.4 | 0.02 | 0.24 | 0.24 | 85 | 1009.2 |
| 20260506004550 | 50 | 347 | 2.6 | 5.2 | 0.10 | 0.24 | 0.24 | 87 | 1009.0 |
| 20260506004035 | 50 | 41 | 2.6 | 5.2 | 0.10 | 0.24 | 0.24 | 87 | 1008.8 |
| 20260506003536 | 51 | 342 | 1.7 | 7.0 | 0.10 | 0.24 | 0.24 | 86 | 1008.8 |
| 20260506003049 | 51 | 9 | 3.5 | 7.8 | 0.10 | 0.24 | 0.24 | 86 | 1008.6 |
| 20260506002535 | 51 | 350 | 4.3 | 7.8 | 0.10 | 0.24 | 0.24 | 85 | 1008.7 |
| 20260506002035 | 51 | 11 | 2.6 | 11.3 | 0.10 | 0.24 | 0.24 | 85 | 1008.7 |
| 20260506001553 | 52 | 4 | 3.5 | 11.3 | 0.10 | 0.24 | 0.24 | 84 | 1008.6 |
| 20260506001037 | 52 | 32 | 4.3 | 13.0 | 0.10 | 0.24 | 0.24 | 83 | 1008.6 |
| 20260506000537 | 52 | 44 | 3.5 | 13.0 | 0.10 | 0.24 | 0.24 | 84 | 1008.5 |
| 20260506000051 | 52 | 35 | 5.2 | 14.8 | 0.10 | 0.24 | 0.24 | 83 | 1008.0 |
| 20260505235539 | 53 | 9 | 7.8 | 14.8 | 0.09 | 0.23 | 0.23 | 81 | 1007.9 |
| 20260505235036 | 55 | 50 | 6.1 | 16.5 | 0.05 | 0.19 | 0.19 | 74 | 1008.3 |
| 20260505234550 | 58 | 47 | 7.8 | 16.5 | 0.00 | 0.14 | 0.14 | 74 | 1007.6 |
| 20260505234036 | 59 | 13 | 8.7 | 16.5 | 0.00 | 0.14 | 0.14 | 74 | 1007.8 |
| 20260505233535 | 60 | 34 | 4.3 | 14.8 | 0.00 | 0.14 | 0.14 | 75 | 1007.6 |
| 20260505233050 | 60 | 349 | 6.1 | 14.8 | 0.00 | 0.14 | 0.14 | 74 | 1007.3 |
| 20260505232535 | 61 | 28 | 5.2 | 13.0 | 0.00 | 0.14 | 0.14 | 74 | 1007.4 |
| 20260505232036 | 61 | 321 | 5.2 | 13.9 | 0.00 | 0.14 | 0.14 | 73 | 1007.3 |
| 20260505231558 | 62 | 356 | 7.0 | 13.9 | 0.00 | 0.14 | 0.14 | 72 | 1007.4 |
| 20260505231036 | 63 | 23 | 3.5 | 7.8 | 0.00 | 0.14 | 0.14 | 72 | 1007.3 |
| 20260505230536 | 63 | 350 | 0.9 | 6.1 | 0.00 | 0.14 | 0.14 | 73 | 1007.4 |
| 20260505230050 | 63 | 39 | 2.6 | 7.0 | 0.00 | 0.14 | 0.14 | 73 | 1006.9 |
| 20260505225536 | 63 | 23 | 0.9 | 7.8 | 0.00 | 0.14 | 0.14 | 74 | 1006.7 |
| 20260505225036 | 63 | 11 | 3.5 | 7.8 | 0.00 | 0.14 | 0.14 | 74 | 1006.5 |
| 20260505224552 | 63 | 37 | 3.5 | 7.8 | 0.00 | 0.14 | 0.14 | 74 | 1006.6 |
| 20260505224037 | 63 | 59 | 3.5 | 10.4 | 0.00 | 0.14 | 0.14 | 75 | 1006.5 |
| 20260505223537 | 63 | 11 | 3.5 | 10.4 | 0.00 | 0.14 | 0.14 | 75 | 1006.3 |
| 20260505223045 | 64 | 49 | 4.3 | 10.4 | 0.00 | 0.14 | 0.14 | 75 | 1005.9 |
| 20260505222542 | 64 | 46 | 3.5 | 7.8 | 0.00 | 0.14 | 0.14 | 77 | 1005.7 |
| 20260505222038 | 65 | 4 | 3.5 | 7.8 | 0.00 | 0.14 | 0.14 | 77 | 1005.5 |
| 20260505221541 | 65 | 42 | 1.7 | 3.5 | 0.00 | 0.14 | 0.14 | 77 | 1005.5 |
| 20260505221038 | 65 | 49 | 1.7 | 2.6 | 0.00 | 0.14 | 0.14 | 78 | 1005.3 |
| 20260505220537 | 65 | 51 | 0.9 | 2.6 | 0.00 | 0.14 | 0.14 | 79 | 1005.2 |
| 20260505220057 | 64 | 31 | 0.9 | 1.7 | 0.00 | 0.14 | 0.14 | 82 | 1005.1 |
| 20260505215537 | 65 | 82 | 0.0 | 0.9 | 0.00 | 0.14 | 0.14 | 87 | 1005.2 |
| 20260505215037 | 64 | 0 | 0.0 | 0.9 | 0.00 | 0.14 | 0.14 | 84 | 1005.2 |
| 20260505214555 | 64 | 82 | 0.0 | 0.9 | 0.00 | 0.14 | 0.14 | 83 | 1005.1 |
| 20260505214038 | 64 | 82 | 0.0 | 0.9 | 0.00 | 0.14 | 0.14 | 85 | 1005.1 |
| 20260505213538 | 64 | 0 | 0.0 | 2.6 | 0.01 | 0.14 | 0.14 | 82 | 1004.9 |
| 20260505213044 | 64 | 81 | 0.0 | 2.6 | 0.04 | 0.14 | 0.14 | 85 | 1004.9 |
| 20260505212538 | 64 | 58 | 0.0 | 2.6 | 0.07 | 0.14 | 0.14 | 82 | 1004.8 |
| 20260505212038 | 64 | 93 | 0.9 | 3.5 | 0.07 | 0.14 | 0.14 | 84 | 1004.9 |
| 20260505211543 | 64 | 0 | 0.9 | 3.5 | 0.07 | 0.14 | 0.14 | 82 | 1005.0 |
| 20260505211038 | 63 | 47 | 0.0 | 2.6 | 0.07 | 0.14 | 0.14 | 86 | 1005.0 |
| 20260505210537 | 63 | 0 | 0.0 | 4.3 | 0.07 | 0.14 | 0.14 | 89 | 1004.9 |
| 20260505210044 | 63 | 36 | 0.9 | 4.3 | 0.07 | 0.14 | 0.14 | 89 | 1004.9 |
| 20260505205538 | 62 | 47 | 0.9 | 2.6 | 0.09 | 0.14 | 0.14 | 89 | 1004.7 |
| 20260505205038 | 61 | 79 | 0.0 | 1.7 | 0.10 | 0.14 | 0.14 | 90 | 1004.8 |
| 20260505204549 | 61 | 81 | 0.9 | 3.5 | 0.10 | 0.14 | 0.14 | 87 | 1004.9 |
| 20260505204037 | 61 | 83 | 0.9 | 10.4 | 0.10 | 0.14 | 0.14 | 84 | 1005.1 |
| 20260505203537 | 62 | 101 | 1.7 | 10.4 | 0.09 | 0.13 | 0.13 | 79 | 1005.5 |
| 20260505203106 | 64 | 290 | 4.3 | 10.4 | 0.06 | 0.10 | 0.10 | 79 | 1005.4 |
| 20260505202537 | 65 | 0 | 0.0 | 0.9 | 0.03 | 0.07 | 0.07 | 85 | 1004.8 |
| 20260505202037 | 65 | 105 | 0.0 | 0.9 | 0.05 | 0.07 | 0.07 | 87 | 1004.6 |
| 20260505201546 | 65 | 0 | 0.0 | 0.9 | 0.07 | 0.07 | 0.07 | 87 | 1004.7 |
| 20260505201038 | 65 | 0 | 0.0 | 1.7 | 0.07 | 0.07 | 0.07 | 88 | 1004.8 |
| 20260505200538 | 65 | 0 | 0.0 | 1.7 | 0.07 | 0.07 | 0.07 | 88 | 1004.8 |
| 20260505200049 | 64 | 104 | 0.0 | 0.9 | 0.07 | 0.07 | 0.07 | 85 | 1004.7 |
| 20260505195539 | 64 | 113 | 0.0 | 0.9 | 0.04 | 0.04 | 0.04 | 83 | 1004.9 |
| 20260505195037 | 65 | 0 | 0.0 | 2.6 | 0.04 | 0.04 | 0.04 | 81 | 1005.0 |
| 20260505194548 | 65 | 113 | 0.0 | 4.3 | 0.04 | 0.04 | 0.04 | 79 | 1005.0 |
| 20260505194036 | 66 | 155 | 0.9 | 7.0 | 0.04 | 0.04 | 0.04 | 76 | 1005.1 |
| 20260505193536 | 66 | 160 | 2.6 | 7.8 | 0.04 | 0.04 | 0.04 | 72 | 1004.9 |
| 20260505193052 | 67 | 231 | 3.5 | 7.8 | 0.04 | 0.04 | 0.04 | 71 | 1005.0 |
| 20260505192536 | 69 | 113 | 1.7 | 6.1 | 0.04 | 0.04 | 0.04 | 71 | 1004.9 |
| 20260505192040 | 70 | 111 | 3.5 | 6.1 | 0.02 | 0.02 | 0.02 | 64 | 1004.9 |
| 20260505191554 | 70 | 227 | 3.5 | 6.1 | 0.00 | 0.00 | 0.00 | 61 | 1004.7 |
| 20260505191035 | 69 | 244 | 2.6 | 5.2 | 0.00 | 0.00 | 0.00 | 62 | 1004.8 |
| 20260505190537 | 69 | 212 | 2.6 | 5.2 | 0.00 | 0.00 | 0.00 | 63 | 1004.9 |
| 20260505190045 | 69 | 257 | 0.9 | 2.6 | 0.00 | 0.00 | 0.00 | 66 | 1005.0 |
| 20260505185536 | 69 | 186 | 0.0 | 0.9 | 0.00 | 0.00 | 0.00 | 69 | 1005.2 |
| 20260505185036 | 69 | 0 | 0.0 | 3.5 | 0.00 | 0.00 | 0.00 | 69 | 1005.3 |
| 20260505184542 | 69 | 190 | 0.0 | 3.5 | 0.00 | 0.00 | 0.00 | 68 | 1005.3 |
| 20260505184036 | 68 | 154 | 0.9 | 3.5 | 0.00 | 0.00 | 0.00 | 68 | 1005.3 |
| 20260505183537 | 68 | 213 | 1.7 | 3.5 | 0.00 | 0.00 | 0.00 | 68 | 1005.2 |
| 20260505183043 | 67 | 243 | 1.7 | 3.5 | 0.00 | 0.00 | 0.00 | 70 | 1005.1 |
| 20260505182535 | 66 | 184 | 1.7 | 3.5 | 0.00 | 0.00 | 0.00 | 72 | 1005.0 |
| 20260505182035 | 65 | 211 | 1.7 | 3.5 | 0.00 | 0.00 | 0.00 | 73 | 1004.8 |
| 20260505181545 | 64 | 221 | 1.7 | 3.5 | 0.00 | 0.00 | 0.00 | 77 | 1004.9 |
| 20260505181037 | 63 | 254 | 0.9 | 2.6 | 0.00 | 0.00 | 0.00 | 76 | 1005.0 |
| 20260505180535 | 63 | 236 | 0.9 | 2.6 | 0.00 | 0.00 | 0.00 | 77 | 1004.9 |
| 20260505180039 | 62 | 131 | 0.0 | 9.6 | 0.00 | 0.00 | 0.00 | 77 | 1004.7 |
| 20260505175535 | 63 | 316 | 1.7 | 9.6 | 0.00 | 0.00 | 0.00 | 75 | 1005.3 |
| 20260505175032 | 64 | 325 | 4.3 | 16.5 | 0.00 | 0.00 | 0.00 | 72 | 1005.5 |
| 20260505174546 | 66 | 213 | 5.2 | 16.5 | 0.00 | 0.00 | 0.00 | 65 | 1005.9 |
| 20260505174034 | 68 | 257 | 6.1 | 16.5 | 0.00 | 0.00 | 0.00 | 53 | 1005.5 |
| 20260505173532 | 70 | 221 | 6.1 | 13.9 | 0.00 | 0.00 | 0.00 | 51 | 1004.8 |
| 20260505173041 | 71 | 188 | 7.8 | 13.9 | 0.00 | 0.00 | 0.00 | 50 | 1004.4 |
| 20260505172535 | 71 | 238 | 7.0 | 13.0 | 0.00 | 0.00 | 0.00 | 49 | 1004.4 |
| 20260505172035 | 71 | 173 | 6.1 | 13.0 | 0.00 | 0.00 | 0.00 | 49 | 1004.3 |
| 20260505171551 | 72 | 209 | 6.1 | 14.8 | 0.00 | 0.00 | 0.00 | 50 | 1004.5 |
| 20260505171036 | 71 | 133 | 5.2 | 14.8 | 0.00 | 0.00 | 0.00 | 50 | 1004.4 |
| 20260505170535 | 71 | 208 | 5.2 | 13.9 | 0.00 | 0.00 | 0.00 | 50 | 1004.5 |
| 20260505170105 | 71 | 224 | 7.0 | 13.9 | 0.00 | 0.00 | 0.00 | 50 | 1004.7 |
| 20260505165535 | 71 | 197 | 6.1 | 14.8 | 0.00 | 0.00 | 0.00 | 50 | 1004.8 |
| 20260505165032 | 71 | 222 | 5.2 | 14.8 | 0.00 | 0.00 | 0.00 | 51 | 1004.7 |
| 20260505164547 | 71 | 226 | 6.1 | 14.8 | 0.00 | 0.00 | 0.00 | 50 | 1004.7 |
| 20260505164035 | 71 | 207 | 5.2 | 13.0 | 0.00 | 0.00 | 0.00 | 49 | 1004.7 |
| 20260505163535 | 71 | 240 | 7.0 | 13.0 | 0.00 | 0.00 | 0.00 | 49 | 1004.7 |
| 20260505163044 | 71 | 170 | 6.1 | 11.3 | 0.00 | 0.00 | 0.00 | 49 | 1004.8 |
| 20260505162538 | 72 | 196 | 5.2 | 11.3 | 0.00 | 0.00 | 0.00 | 49 | 1004.8 |
| 20260505162037 | 72 | 183 | 6.1 | 13.9 | 0.00 | 0.00 | 0.00 | 49 | 1004.6 |
| 20260505161556 | 72 | 220 | 5.2 | 13.9 | 0.00 | 0.00 | 0.00 | 49 | 1004.3 |
| 20260505161037 | 71 | 232 | 7.0 | 13.9 | 0.00 | 0.00 | 0.00 | 49 | 1004.0 |
| 20260505160537 | 71 | 184 | 5.2 | 13.9 | 0.00 | 0.00 | 0.00 | 49 | 1004.0 |
| 20260505153043 | 71 | 243 | 5.2 | 12.2 | 0.00 | 0.00 | 0.00 | 53 | 1004.6 |
| 20260505152537 | 70 | 189 | 5.2 | 13.0 | 0.00 | 0.00 | 0.00 | 53 | 1004.5 |
| 20260505152036 | 70 | 219 | 5.2 | 13.0 | 0.00 | 0.00 | 0.00 | 53 | 1004.6 |
| 20260505151601 | 71 | 241 | 6.1 | 13.0 | 0.00 | 0.00 | 0.00 | 53 | 1004.6 |
| 20260505151037 | 70 | 154 | 6.1 | 16.5 | 0.00 | 0.00 | 0.00 | 53 | 1004.8 |
| 20260505150539 | 70 | 221 | 5.2 | 16.5 | 0.00 | 0.00 | 0.00 | 52 | 1004.8 |
| 20260505140537 | 71 | 200 | 6.1 | 14.8 | 0.00 | 0.00 | 0.00 | 55 | 1004.0 |
| 20260505125037 | 67 | 224 | 5.2 | 13.0 | 0.00 | 0.00 | 0.00 | 60 | 1004.2 |
| 20260505124541 | 67 | 229 | 7.0 | 13.0 | 0.00 | 0.00 | 0.00 | 60 | 1004.0 |
| 20260505124038 | 67 | 188 | 6.1 | 13.0 | 0.00 | 0.00 | 0.00 | 61 | 1004.0 |
| 20260505123538 | 66 | 207 | 6.1 | 13.0 | 0.00 | 0.00 | 0.00 | 60 | 1004.2 |
| 20260505123040 | 66 | 208 | 5.2 | 13.0 | 0.00 | 0.00 | 0.00 | 61 | 1004.1 |
| 20260505122541 | 66 | 174 | 5.2 | 13.0 | 0.00 | 0.00 | 0.00 | 61 | 1004.4 |
| 20260505122037 | 65 | 142 | 5.2 | 12.2 | 0.00 | 0.00 | 0.00 | 62 | 1004.3 |
| 20260505121558 | 65 | 169 | 4.3 | 12.2 | 0.00 | 0.00 | 0.00 | 62 | 1004.4 |
| 20260505121037 | 65 | 228 | 5.2 | 15.6 | 0.00 | 0.00 | 0.00 | 62 | 1004.5 |
| 20260505120537 | 65 | 166 | 5.2 | 15.6 | 0.00 | 0.00 | 0.00 | 62 | 1004.5 |
| 20260505120044 | 65 | 195 | 5.2 | 15.6 | 0.00 | 0.00 | 0.00 | 62 | 1004.4 |
| 20260505115540 | 65 | 176 | 6.1 | 15.6 | 0.00 | 0.00 | 0.00 | 62 | 1004.4 |
| 20260505115037 | 64 | 229 | 7.0 | 12.2 | 0.00 | 0.00 | 0.00 | 64 | 1004.3 |
| 20260505114541 | 64 | 184 | 6.1 | 16.5 | 0.00 | 0.00 | 0.00 | 65 | 1004.3 |
| 20260505114038 | 63 | 167 | 4.3 | 16.5 | 0.00 | 0.00 | 0.00 | 66 | 1004.3 |
| 20260505113537 | 63 | 175 | 4.3 | 14.8 | 0.00 | 0.00 | 0.00 | 67 | 1004.3 |
| 20260505113041 | 62 | 223 | 5.2 | 14.8 | 0.00 | 0.00 | 0.00 | 67 | 1004.3 |
| 20260505112538 | 62 | 186 | 4.3 | 10.4 | 0.00 | 0.00 | 0.00 | 68 | 1004.4 |
| 20260505112037 | 62 | 205 | 5.2 | 12.2 | 0.00 | 0.00 | 0.00 | 69 | 1004.5 |
| 20260505111545 | 62 | 190 | 5.2 | 12.2 | 0.00 | 0.00 | 0.00 | 69 | 1004.4 |
| 20260505111037 | 62 | 121 | 5.2 | 12.2 | 0.00 | 0.00 | 0.00 | 69 | 1004.4 |
| 20260505110536 | 62 | 161 | 6.1 | 12.2 | 0.00 | 0.00 | 0.00 | 69 | 1004.5 |
| 20260505102037 | 62 | 200 | 3.5 | 12.2 | 0.00 | 0.00 | 0.00 | 68 | 1003.6 |
| 20260505101553 | 62 | 150 | 4.3 | 12.2 | 0.00 | 0.00 | 0.00 | 67 | 1003.6 |
| 20260505101037 | 62 | 160 | 3.5 | 12.2 | 0.00 | 0.00 | 0.00 | 66 | 1003.6 |
| 20260505100538 | 62 | 142 | 6.1 | 12.2 | 0.00 | 0.00 | 0.00 | 66 | 1003.6 |
| 20260505100043 | 62 | 221 | 4.3 | 9.6 | 0.00 | 0.00 | 0.00 | 67 | 1003.6 |
| 20260505095537 | 62 | 209 | 4.3 | 11.3 | 0.00 | 0.00 | 0.00 | 67 | 1003.6 |
| 20260505095036 | 62 | 242 | 2.6 | 11.3 | 0.00 | 0.00 | 0.00 | 66 | 1003.5 |
| 20260505094541 | 63 | 152 | 3.5 | 12.2 | 0.00 | 0.00 | 0.00 | 66 | 1003.5 |
| 20260505094036 | 63 | 191 | 4.3 | 17.4 | 0.00 | 0.00 | 0.00 | 65 | 1003.5 |
| 20260505093536 | 63 | 172 | 8.7 | 17.4 | 0.00 | 0.00 | 0.00 | 63 | 1003.4 |
| 20260505093043 | 63 | 221 | 6.1 | 13.0 | 0.00 | 0.00 | 0.00 | 62 | 1003.4 |
| 20260505092537 | 64 | 226 | 7.0 | 12.2 | 0.00 | 0.00 | 0.00 | 61 | 1003.7 |
| 20260505092037 | 63 | 195 | 5.2 | 12.2 | 0.00 | 0.00 | 0.00 | 61 | 1003.6 |
| 20260505091544 | 63 | 235 | 5.2 | 12.2 | 0.00 | 0.00 | 0.00 | 62 | 1003.6 |
| 20260505091037 | 63 | 229 | 5.2 | 12.2 | 0.00 | 0.00 | 0.00 | 62 | 1003.5 |
| 20260505090536 | 63 | 189 | 3.5 | 11.3 | 0.00 | 0.00 | 0.00 | 63 | 1003.6 |
| 20260505090055 | 63 | 163 | 5.2 | 10.4 | 0.00 | 0.00 | 0.00 | 62 | 1003.6 |
| 20260505085538 | 63 | 221 | 4.3 | 10.4 | 0.00 | 0.00 | 0.00 | 62 | 1003.6 |
| 20260505085036 | 63 | 184 | 2.6 | 7.8 | 0.00 | 0.00 | 0.00 | 62 | 1003.5 |
| 20260505084548 | 63 | 167 | 2.6 | 7.8 | 0.00 | 0.00 | 0.00 | 62 | 1003.6 |
| 20260505084038 | 63 | 187 | 2.6 | 9.6 | 0.00 | 0.00 | 0.00 | 62 | 1003.6 |
| 20260505083537 | 63 | 219 | 3.5 | 9.6 | 0.00 | 0.00 | 0.00 | 62 | 1003.6 |
| 20260505083045 | 63 | 163 | 2.6 | 10.4 | 0.00 | 0.00 | 0.00 | 62 | 1003.5 |
| 20260505082537 | 63 | 236 | 2.6 | 10.4 | 0.00 | 0.00 | 0.00 | 62 | 1003.5 |
| 20260505082037 | 63 | 184 | 3.5 | 9.6 | 0.00 | 0.00 | 0.00 | 62 | 1003.5 |
| 20260505081545 | 63 | 169 | 3.5 | 9.6 | 0.00 | 0.00 | 0.00 | 62 | 1003.5 |
| 20260505081037 | 63 | 200 | 2.6 | 9.6 | 0.00 | 0.00 | 0.00 | 62 | 1003.5 |
| 20260505080536 | 63 | 174 | 2.6 | 7.8 | 0.00 | 0.00 | 0.00 | 62 | 1003.5 |
| 20260505080043 | 63 | 177 | 2.6 | 7.8 | 0.00 | 0.00 | 0.00 | 63 | 1003.5 |
| 20260505075539 | 62 | 151 | 1.7 | 7.8 | 0.00 | 0.00 | 0.00 | 63 | 1003.5 |
| 20260505075036 | 62 | 224 | 0.9 | 4.3 | 0.00 | 0.00 | 0.00 | 63 | 1003.6 |
| 20260505074541 | 62 | 193 | 0.9 | 4.3 | 0.00 | 0.00 | 0.00 | 63 | 1003.7 |
| 20260505074036 | 62 | 182 | 1.7 | 3.5 | 0.00 | 0.00 | 0.00 | 63 | 1003.8 |
| 20260505073537 | 62 | 186 | 0.9 | 4.3 | 0.00 | 0.00 | 0.00 | 63 | 1003.7 |
| 20260505073041 | 62 | 243 | 0.0 | 4.3 | 0.00 | 0.00 | 0.00 | 63 | 1003.8 |
| 20260505072536 | 63 | 111 | 1.7 | 5.2 | 0.00 | 0.00 | 0.00 | 63 | 1004.0 |
| 20260505072036 | 63 | 212 | 0.9 | 5.2 | 0.00 | 0.00 | 0.00 | 62 | 1004.0 |
| 20260505071545 | 63 | 160 | 1.7 | 6.1 | 0.00 | 0.00 | 0.00 | 62 | 1004.0 |
| 20260505071036 | 63 | 214 | 2.6 | 6.1 | 0.00 | 0.00 | 0.00 | 62 | 1004.2 |
| 20260505070538 | 63 | 167 | 2.6 | 7.0 | 0.00 | 0.00 | 0.00 | 61 | 1004.2 |
| 20260505070046 | 63 | 165 | 3.5 | 7.0 | 0.00 | 0.00 | 0.00 | 61 | 1004.4 |
| 20260505065536 | 63 | 197 | 2.6 | 7.0 | 0.00 | 0.00 | 0.00 | 61 | 1004.2 |
| 20260505065036 | 63 | 172 | 2.6 | 7.0 | 0.00 | 0.00 | 0.00 | 62 | 1004.2 |
| 20260505064543 | 63 | 150 | 2.6 | 7.8 | 0.00 | 0.00 | 0.00 | 62 | 1004.0 |
| 20260505064036 | 63 | 109 | 3.5 | 9.6 | 0.00 | 0.00 | 0.00 | 62 | 1004.0 |
| 20260505063536 | 62 | 205 | 3.5 | 9.6 | 0.00 | 0.00 | 0.00 | 63 | 1004.1 |
| 20260505063052 | 62 | 210 | 2.6 | 7.0 | 0.00 | 0.00 | 0.00 | 63 | 1004.0 |
| 20260505062536 | 62 | 199 | 2.6 | 7.0 | 0.00 | 0.00 | 0.00 | 64 | 1004.0 |
| 20260505062037 | 61 | 183 | 2.6 | 7.0 | 0.00 | 0.00 | 0.00 | 64 | 1004.0 |
| 20260505061552 | 61 | 98 | 1.7 | 6.1 | 0.00 | 0.00 | 0.00 | 65 | 1004.0 |
| 20260505061037 | 60 | 193 | 2.6 | 6.1 | 0.00 | 0.00 | 0.00 | 66 | 1004.1 |
| 20260505060537 | 60 | 145 | 1.7 | 6.1 | 0.00 | 0.00 | 0.00 | 67 | 1004.1 |
| 20260505060046 | 59 | 122 | 1.7 | 6.1 | 0.00 | 0.00 | 0.00 | 67 | 1004.0 |